QPF
0.00 0.00 0.00 0.00 0.00 0.00 0.00 0.00 0.00 0.00 0.00 0.00 0.00 0.00 0.00 0.00 0.00 0.00 0.00 0.00 0.00 0.00 0.00 0.00 0.00 0.00 0.01 0.01 0.01 0.01 0.02 0.02 0.03 0.03 0.03 0.02 0.02 0.03 0.04 0.04 0.06 0.06 0.04 0.05
0.00 0.00 0.00 0.00 0.00 0.00 0.00 0.00 0.00 0.00 0.00 0.00 0.00 0.00 0.00 0.00 0.00 0.00 0.00 0.00 0.00 0.00 0.00 0.00 0.00 0.00 0.00 0.01 0.02 0.02 0.02 0.03 0.03 0.03 0.02 0.01 0.01 0.01 0.01 0.01 0.02 0.02 0.02 0.02
0.00 0.00 0.00 0.00 0.00 0.00 0.00 0.00 0.00 0.00 0.00 0.00 0.00 0.00 0.00 0.00 0.00 0.00 0.00 0.00 0.00 0.00 0.00 0.00 0.00 0.00 0.00 0.01 0.01 0.02 0.03 0.03 0.03 0.03 0.01 0.01 0.01 0.01 0.00 0.01 0.01 0.01 0.02 0.02
0.00 0.00 0.00 0.00 0.00 0.00 0.00 0.00 0.00 0.00 0.00 0.00 0.00 0.00 0.00 0.00 0.00 0.00 0.00 0.00 0.00 0.00 0.00 0.00 0.00 0.00 0.00 0.01 0.01 0.02 0.02 0.02 0.02 0.02 0.01 0.01 0.00 0.01 0.01 0.01 0.01 0.03 0.03 0.03
0.00 0.00 0.00 0.00 0.00 0.00 0.00 0.00 0.00 0.00 0.00 0.00 0.00 0.00 0.00 0.00 0.00 0.00 0.00 0.00 0.00 0.00 0.00 0.00 0.00 0.00 0.00 0.00 0.01 0.01 0.01 0.01 0.01 0.01 0.01 0.01 0.01 0.01 0.02 0.02 0.02 0.03 0.04 0.04
0.00 0.00 0.00 0.00 0.00 0.00 0.00 0.00 0.00 0.00 0.00 0.00 0.00 0.00 0.00 0.00 0.00 0.00 0.00 0.00 0.00 0.00 0.00 0.00 0.00 0.00 0.00 0.00 0.01 0.00 0.00 0.00 0.00 0.00 0.00 0.00 0.01 0.01 0.02 0.03 0.03 0.04 0.04 0.05
0.00 0.00 0.00 0.00 0.00 0.00 0.00 0.00 0.00 0.00 0.00 0.00 0.00 0.00 0.00 0.00 0.00 0.00 0.00 0.00 0.00 0.00 0.00 0.00 0.00 0.01 0.01 0.00 0.00 0.01 0.00 0.00 0.00 0.00 0.00 0.01 0.01 0.01 0.02 0.03 0.04 0.04 0.06 0.06
0.00 0.00 0.00 0.00 0.00 0.00 0.00 0.00 0.00 0.00 0.00 0.00 0.00 0.00 0.00 0.00 0.00 0.00 0.00 0.00 0.00 0.00 0.00 0.00 0.00 0.01 0.01 0.01 0.01 0.01 0.00 0.00 0.00 0.00 0.01 0.01 0.01 0.01 0.01 0.02 0.03 0.03 0.04 0.05
0.00 0.00 0.00 0.00 0.00 0.00 0.00 0.00 0.00 0.00 0.00 0.01 0.00 0.00 0.00 0.00 0.00 0.00 0.00 0.01 0.01 0.01 0.01 0.01 0.01 0.01 0.01 0.01 0.02 0.01 0.00 0.00 0.00 0.00 0.01 0.01 0.01 0.01 0.01 0.02 0.01 0.01 0.02 0.03
0.00 0.00 0.00 0.00 0.00 0.00 0.00 0.00 0.00 0.00 0.00 0.01 0.00 0.00 0.00 0.00 0.00 0.00 0.01 0.02 0.01 0.01 0.01 0.01 0.01 0.02 0.02 0.01 0.01 0.01 0.00 0.00 0.00 0.00 0.01 0.01 0.01 0.01 0.01 0.01 0.01 0.01 0.02 0.02
0.00 0.00 0.00 0.00 0.00 0.00 0.00 0.00 0.00 0.00 0.00 0.00 0.00 0.00 0.00 0.00 0.00 0.00 0.00 0.01 0.01 0.01 0.01 0.01 0.01 0.02 0.02 0.01 0.01 0.00 0.00 0.00 0.00 0.00 0.00 0.01 0.01 0.01 0.01 0.01 0.01 0.01 0.02 0.02
0.00 0.00 0.00 0.00 0.00 0.00 0.00 0.00 0.00 0.00 0.00 0.00 0.00 0.00 0.00 0.00 0.00 0.00 0.00 0.00 0.00 0.01 0.01 0.01 0.02 0.02 0.01 0.01 0.01 0.00 0.00 0.00 0.00 0.00 0.00 0.00 0.01 0.02 0.02 0.02 0.03 0.03 0.02 0.02
0.00 0.00 0.00 0.00 0.00 0.00 0.00 0.00 0.00 0.00 0.00 0.00 0.00 0.00 0.00 0.00 0.00 0.00 0.00 0.00 0.01 0.01 0.01 0.02 0.01 0.01 0.01 0.01 0.01 0.01 0.01 0.00 0.00 0.01 0.01 0.01 0.02 0.03 0.03 0.02 0.02 0.03 0.03 0.03
0.00 0.00 0.00 0.00 0.00 0.00 0.00 0.00 0.00 0.00 0.00 0.00 0.00 0.00 0.00 0.00 0.00 0.00 0.00 0.01 0.02 0.02 0.02 0.02 0.02 0.01 0.01 0.01 0.01 0.01 0.01 0.02 0.02 0.04 0.04 0.02 0.02 0.03 0.03 0.03 0.03 0.02 0.02 0.02
0.00 0.00 0.00 0.00 0.00 0.00 0.00 0.00 0.00 0.00 0.00 0.00 0.00 0.00 0.00 0.00 0.01 0.01 0.02 0.01 0.02 0.04 0.04 0.03 0.02 0.01 0.01 0.02 0.03 0.03 0.02 0.03 0.05 0.04 0.03 0.02 0.03 0.03 0.04 0.06 0.05 0.04 0.03 0.02
0.00 0.00 0.00 0.00 0.00 0.00 0.00 0.00 0.00 0.00 0.00 0.00 0.00 0.00 0.00 0.00 0.01 0.01 0.02 0.03 0.03 0.04 0.03 0.02 0.02 0.01 0.01 0.02 0.03 0.04 0.02 0.02 0.03 0.03 0.04 0.05 0.06 0.06 0.06 0.06 0.06 0.04 0.03 0.03
0.00 0.00 0.00 0.00 0.00 0.00 0.00 0.00 0.00 0.00 0.00 0.00 0.00 0.00 0.00 0.01 0.01 0.02 0.02 0.03 0.02 0.02 0.02 0.02 0.02 0.02 0.02 0.03 0.05 0.04 0.02 0.04 0.05 0.05 0.06 0.07 0.07 0.05 0.04 0.04 0.05 0.04 0.04 0.05
0.00 0.00 0.00 0.00 0.00 0.00 0.00 0.00 0.00 0.00 0.00 0.00 0.00 0.01 0.01 0.02 0.02 0.02 0.02 0.02 0.02 0.01 0.03 0.04 0.04 0.04 0.05 0.05 0.04 0.03 0.04 0.06 0.09 0.12 0.11 0.09 0.08 0.06 0.05 0.05 0.05 0.05 0.06 0.05
0.00 0.00 0.00 0.00 0.00 0.00 0.00 0.00 0.00 0.00 0.00 0.00 0.00 0.00 0.01 0.01 0.02 0.02 0.01 0.02 0.02 0.01 0.02 0.03 0.05 0.07 0.10 0.11 0.08 0.06 0.06 0.07 0.11 0.16 0.16 0.13 0.10 0.09 0.09 0.09 0.08 0.07 0.08 0.07
0.00 0.00 0.00 0.00 0.00 0.00 0.00 0.00 0.00 0.00 0.00 0.01 0.01 0.01 0.01 0.02 0.03 0.02 0.01 0.01 0.01 0.01 0.01 0.01 0.03 0.05 0.08 0.09 0.07 0.07 0.09 0.12 0.13 0.14 0.14 0.15 0.11 0.09 0.09 0.09 0.09 0.09 0.07 0.06
0.00 0.00 0.00 0.00 0.00 0.00 0.00 0.00 0.00 0.00 0.00 0.01 0.01 0.01 0.01 0.02 0.02 0.01 0.01 0.01 0.01 0.01 0.01 0.01 0.01 0.02 0.03 0.05 0.06 0.07 0.09 0.13 0.14 0.12 0.12 0.10 0.08 0.06 0.06 0.06 0.06 0.08 0.08 0.07
0.00 0.00 0.00 0.00 0.00 0.00 0.01 0.01 0.00 0.00 0.00 0.00 0.00 0.00 0.01 0.01 0.00 0.00 0.00 0.01 0.00 0.00 0.01 0.01 0.01 0.02 0.03 0.04 0.06 0.08 0.11 0.12 0.12 0.09 0.06 0.05 0.05 0.06 0.06 0.06 0.07 0.07 0.08 0.09
0.00 0.00 0.00 0.00 0.00 0.00 0.00 0.00 0.00 0.00 0.00 0.00 0.00 0.00 0.01 0.01 0.01 0.01 0.01 0.02 0.02 0.01 0.01 0.01 0.01 0.02 0.03 0.03 0.05 0.07 0.09 0.08 0.06 0.04 0.04 0.03 0.03 0.04 0.04 0.05 0.06 0.05 0.04 0.04
0.00 0.00 0.00 0.00 0.00 0.00 0.00 0.01 0.00 0.01 0.01 0.01 0.01 0.01 0.01 0.01 0.01 0.01 0.01 0.02 0.02 0.02 0.02 0.02 0.02 0.02 0.02 0.02 0.02 0.04 0.05 0.04 0.04 0.03 0.03 0.03 0.03 0.04 0.04 0.04 0.03 0.03 0.03 0.02
0.01 0.01 0.00 0.00 0.00 0.00 0.00 0.00 0.01 0.02 0.02 0.01 0.01 0.01 0.01 0.01 0.01 0.01 0.01 0.01 0.02 0.02 0.02 0.01 0.01 0.01 0.02 0.02 0.02 0.03 0.03 0.02 0.02 0.02 0.02 0.02 0.02 0.02 0.04 0.04 0.04 0.03 0.03 0.03
0.01 0.01 0.01 0.00 0.00 0.00 0.00 0.01 0.01 0.02 0.02 0.02 0.02 0.02 0.02 0.02 0.01 0.01 0.01 0.02 0.03 0.03 0.02 0.01 0.02 0.02 0.02 0.02 0.02 0.02 0.02 0.01 0.01 0.03 0.03 0.03 0.02 0.02 0.02 0.03 0.02 0.02 0.02 0.02
MSLP
1009.63 1010.75 1011.77 1012.65 1013.37 1013.95 1014.40 1014.75 1015.03 1015.23 1015.35 1015.39 1015.34 1015.22 1015.04 1014.83 1014.63 1014.47 1014.37 1014.33 1014.33 1014.36 1014.37 1014.35 1014.27 1014.15 1014.01 1013.88 1013.78 1013.73 1013.77 1013.85 1013.98 1014.10 1014.18 1014.20 1014.14 1014.01 1013.83 1013.62 1013.44 1013.30 1013.22 1013.22
1010.18 1011.12 1011.95 1012.63 1013.21 1013.72 1014.18 1014.63 1015.05 1015.44 1015.74 1015.92 1015.96 1015.84 1015.59 1015.25 1014.89 1014.56 1014.30 1014.14 1014.07 1014.07 1014.10 1014.11 1014.09 1014.02 1013.91 1013.80 1013.72 1013.69 1013.73 1013.84 1013.99 1014.15 1014.26 1014.29 1014.23 1014.07 1013.83 1013.56 1013.31 1013.11 1013.00 1012.98
1010.51 1011.26 1011.87 1012.39 1012.85 1013.33 1013.86 1014.45 1015.08 1015.69 1016.21 1016.55 1016.68 1016.56 1016.22 1015.72 1015.16 1014.61 1014.16 1013.84 1013.67 1013.62 1013.65 1013.71 1013.74 1013.73 1013.69 1013.63 1013.58 1013.58 1013.65 1013.80 1013.99 1014.18 1014.33 1014.39 1014.34 1014.17 1013.90 1013.60 1013.30 1013.06 1012.92 1012.90
1010.60 1011.14 1011.56 1011.94 1012.34 1012.84 1013.48 1014.27 1015.15 1016.01 1016.74 1017.25 1017.45 1017.32 1016.88 1016.20 1015.41 1014.64 1013.96 1013.47 1013.18 1013.07 1013.10 1013.19 1013.29 1013.37 1013.40 1013.40 1013.40 1013.45 1013.56 1013.74 1013.96 1014.19 1014.38 1014.47 1014.45 1014.29 1014.03 1013.71 1013.39 1013.14 1012.98 1012.96
1010.47 1010.81 1011.06 1011.33 1011.71 1012.29 1013.09 1014.10 1015.22 1016.34 1017.29 1017.94 1018.21 1018.04 1017.49 1016.63 1015.62 1014.62 1013.73 1013.07 1012.67 1012.51 1012.54 1012.68 1012.86 1013.02 1013.13 1013.21 1013.27 1013.35 1013.49 1013.69 1013.94 1014.20 1014.41 1014.54 1014.55 1014.42 1014.17 1013.87 1013.56 1013.30 1013.15 1013.11
1010.17 1010.31 1010.43 1010.64 1011.04 1011.71 1012.68 1013.91 1015.28 1016.61 1017.75 1018.52 1018.82 1018.62 1017.96 1016.94 1015.75 1014.55 1013.50 1012.71 1012.22 1012.03 1012.09 1012.29 1012.55 1012.80 1013.00 1013.14 1013.25 1013.36 1013.51 1013.71 1013.96 1014.22 1014.45 1014.60 1014.64 1014.54 1014.33 1014.06 1013.77 1013.52 1013.37 1013.33
1009.76 1009.73 1009.75 1009.92 1010.36 1011.14 1012.27 1013.68 1015.24 1016.75 1018.01 1018.86 1019.18 1018.95 1018.21 1017.08 1015.76 1014.44 1013.29 1012.43 1011.92 1011.75 1011.85 1012.12 1012.47 1012.80 1013.07 1013.27 1013.40 1013.52 1013.66 1013.84 1014.06 1014.30 1014.52 1014.68 1014.74 1014.68 1014.51 1014.27 1014.01 1013.78 1013.64 1013.59
1009.32 1009.16 1009.09 1009.25 1009.73 1010.60 1011.85 1013.39 1015.06 1016.66 1017.99 1018.87 1019.19 1018.93 1018.15 1016.98 1015.62 1014.28 1013.12 1012.28 1011.81 1011.69 1011.86 1012.22 1012.65 1013.05 1013.38 1013.61 1013.75 1013.85 1013.95 1014.08 1014.26 1014.46 1014.65 1014.81 1014.88 1014.85 1014.72 1014.52 1014.29 1014.08 1013.93 1013.87
1008.91 1008.65 1008.54 1008.70 1009.21 1010.13 1011.43 1013.01 1014.71 1016.32 1017.64 1018.50 1018.81 1018.55 1017.79 1016.66 1015.35 1014.09 1013.02 1012.27 1011.90 1011.88 1012.15 1012.59 1013.08 1013.54 1013.89 1014.12 1014.25 1014.32 1014.37 1014.44 1014.56 1014.71 1014.87 1015.01 1015.09 1015.08 1014.98 1014.82 1014.62 1014.43 1014.27 1014.18
1008.58 1008.27 1008.15 1008.32 1008.85 1009.78 1011.07 1012.60 1014.23 1015.75 1016.99 1017.80 1018.08 1017.84 1017.15 1016.13 1014.98 1013.88 1012.99 1012.41 1012.19 1012.29 1012.65 1013.15 1013.69 1014.16 1014.52 1014.74 1014.84 1014.87 1014.87 1014.88 1014.94 1015.05 1015.18 1015.29 1015.37 1015.38 1015.31 1015.17 1015.00 1014.81 1014.65 1014.53
1008.36 1008.06 1007.97 1008.17 1008.72 1009.61 1010.81 1012.22 1013.69 1015.04 1016.14 1016.84 1017.10 1016.90 1016.32 1015.49 1014.57 1013.71 1013.06 1012.69 1012.63 1012.85 1013.29 1013.82 1014.36 1014.82 1015.15 1015.34 1015.41 1015.40 1015.37 1015.35 1015.37 1015.45 1015.55 1015.65 1015.73 1015.75 1015.69 1015.58 1015.41 1015.23 1015.06 1014.91
1008.23 1008.02 1008.02 1008.28 1008.82 1009.65 1010.72 1011.94 1013.18 1014.31 1015.21 1015.79 1016.01 1015.87 1015.44 1014.83 1014.18 1013.61 1013.22 1013.07 1013.17 1013.49 1013.96 1014.49 1015.00 1015.41 1015.70 1015.85 1015.89 1015.86 1015.81 1015.79 1015.80 1015.86 1015.96 1016.06 1016.13 1016.15 1016.10 1015.99 1015.83 1015.64 1015.45 1015.28
1008.21 1008.16 1008.29 1008.63 1009.19 1009.94 1010.84 1011.83 1012.80 1013.67 1014.36 1014.80 1014.97 1014.90 1014.64 1014.27 1013.90 1013.61 1013.48 1013.53 1013.76 1014.14 1014.61 1015.09 1015.52 1015.86 1016.08 1016.19 1016.21 1016.19 1016.16 1016.16 1016.19 1016.27 1016.36 1016.46 1016.52 1016.53 1016.48 1016.36 1016.20 1016.00 1015.80 1015.60
1008.29 1008.46 1008.76 1009.21 1009.78 1010.45 1011.18 1011.92 1012.61 1013.21 1013.67 1013.97 1014.10 1014.10 1014.00 1013.87 1013.76 1013.74 1013.83 1014.04 1014.36 1014.76 1015.17 1015.57 1015.90 1016.15 1016.30 1016.37 1016.40 1016.40 1016.41 1016.46 1016.53 1016.63 1016.74 1016.82 1016.87 1016.85 1016.78 1016.64 1016.46 1016.25 1016.03 1015.82
1008.49 1008.89 1009.39 1009.96 1010.55 1011.14 1011.69 1012.20 1012.62 1012.96 1013.20 1013.37 1013.46 1013.52 1013.58 1013.66 1013.79 1013.99 1014.26 1014.59 1014.95 1015.32 1015.66 1015.94 1016.16 1016.31 1016.40 1016.45 1016.49 1016.54 1016.61 1016.71 1016.83 1016.96 1017.06 1017.13 1017.14 1017.08 1016.96 1016.78 1016.58 1016.36 1016.14 1015.93
1008.80 1009.44 1010.12 1010.79 1011.40 1011.91 1012.31 1012.60 1012.78 1012.88 1012.95 1013.00 1013.07 1013.19 1013.37 1013.63 1013.96 1014.34 1014.75 1015.15 1015.52 1015.84 1016.09 1016.26 1016.37 1016.43 1016.47 1016.51 1016.57 1016.67 1016.81 1016.96 1017.12 1017.26 1017.34 1017.37 1017.32 1017.19 1017.01 1016.80 1016.56 1016.33 1016.12 1015.93
1009.23 1010.06 1010.88 1011.63 1012.23 1012.67 1012.93 1013.03 1013.01 1012.93 1012.85 1012.82 1012.87 1013.05 1013.35 1013.76 1014.24 1014.76 1015.26 1015.71 1016.07 1016.33 1016.49 1016.57 1016.59 1016.58 1016.59 1016.64 1016.73 1016.88 1017.07 1017.26 1017.43 1017.55 1017.59 1017.55 1017.42 1017.22 1016.97 1016.70 1016.44 1016.21 1016.02 1015.87
1009.74 1010.69 1011.59 1012.36 1012.94 1013.30 1013.44 1013.40 1013.23 1013.02 1012.84 1012.76 1012.82 1013.06 1013.45 1013.98 1014.59 1015.20 1015.78 1016.25 1016.61 1016.83 1016.93 1016.93 1016.90 1016.86 1016.85 1016.91 1017.03 1017.21 1017.42 1017.62 1017.77 1017.85 1017.82 1017.69 1017.47 1017.18 1016.87 1016.56 1016.29 1016.07 1015.93 1015.84
1010.28 1011.26 1012.17 1012.91 1013.44 1013.72 1013.77 1013.62 1013.36 1013.08 1012.85 1012.77 1012.86 1013.16 1013.64 1014.26 1014.95 1015.65 1016.27 1016.78 1017.13 1017.34 1017.41 1017.38 1017.33 1017.28 1017.28 1017.34 1017.48 1017.67 1017.87 1018.04 1018.14 1018.14 1018.03 1017.80 1017.49 1017.13 1016.76 1016.43 1016.16 1015.99 1015.91 1015.90
1010.76 1011.70 1012.54 1013.22 1013.68 1013.89 1013.87 1013.68 1013.38 1013.08 1012.87 1012.81 1012.96 1013.32 1013.87 1014.57 1015.33 1016.09 1016.75 1017.29 1017.66 1017.87 1017.94 1017.92 1017.87 1017.83 1017.84 1017.91 1018.04 1018.21 1018.37 1018.48 1018.51 1018.42 1018.20 1017.89 1017.50 1017.08 1016.69 1016.36 1016.14 1016.03 1016.02 1016.10
1011.11 1011.94 1012.69 1013.28 1013.66 1013.82 1013.78 1013.58 1013.31 1013.05 1012.89 1012.90 1013.12 1013.55 1014.17 1014.92 1015.73 1016.53 1017.23 1017.79 1018.19 1018.42 1018.52 1018.53 1018.50 1018.47 1018.48 1018.55 1018.65 1018.77 1018.86 1018.88 1018.81 1018.62 1018.32 1017.94 1017.50 1017.06 1016.68 1016.39 1016.23 1016.21 1016.29 1016.47
1011.28 1011.97 1012.60 1013.10 1013.42 1013.56 1013.54 1013.39 1013.20 1013.03 1012.97 1013.08 1013.37 1013.87 1014.55 1015.34 1016.18 1016.99 1017.71 1018.30 1018.72 1018.99 1019.12 1019.16 1019.15 1019.14 1019.14 1019.17 1019.22 1019.26 1019.26 1019.18 1019.01 1018.74 1018.37 1017.94 1017.49 1017.07 1016.74 1016.52 1016.45 1016.51 1016.70 1016.96
1011.24 1011.81 1012.33 1012.75 1013.05 1013.21 1013.25 1013.20 1013.13 1013.10 1013.17 1013.38 1013.77 1014.33 1015.04 1015.85 1016.69 1017.50 1018.23 1018.82 1019.26 1019.56 1019.72 1019.78 1019.79 1019.77 1019.74 1019.72 1019.69 1019.64 1019.53 1019.35 1019.09 1018.74 1018.33 1017.89 1017.47 1017.11 1016.85 1016.73 1016.76 1016.92 1017.19 1017.52
1011.05 1011.51 1011.95 1012.34 1012.65 1012.87 1013.02 1013.11 1013.19 1013.31 1013.52 1013.85 1014.32 1014.94 1015.66 1016.46 1017.29 1018.08 1018.78 1019.37 1019.81 1020.12 1020.30 1020.37 1020.38 1020.33 1020.26 1020.17 1020.04 1019.89 1019.67 1019.40 1019.06 1018.67 1018.25 1017.83 1017.47 1017.19 1017.03 1017.01 1017.14 1017.38 1017.72 1018.09
1010.79 1011.19 1011.59 1011.99 1012.34 1012.65 1012.93 1013.18 1013.42 1013.71 1014.06 1014.50 1015.04 1015.68 1016.41 1017.19 1017.97 1018.72 1019.38 1019.94 1020.38 1020.68 1020.85 1020.92 1020.91 1020.83 1020.70 1020.52 1020.30 1020.04 1019.73 1019.38 1018.99 1018.58 1018.17 1017.81 1017.52 1017.34 1017.28 1017.36 1017.57 1017.87 1018.24 1018.63
1010.58 1010.96 1011.36 1011.78 1012.21 1012.63 1013.04 1013.44 1013.85 1014.28 1014.75 1015.28 1015.88 1016.54 1017.25 1017.98 1018.71 1019.40 1020.02 1020.54 1020.94 1021.23 1021.39 1021.44 1021.40 1021.27 1021.08 1020.83 1020.52 1020.17 1019.79 1019.38 1018.96 1018.55 1018.18 1017.89 1017.68 1017.59 1017.63 1017.79 1018.05 1018.38 1018.75 1019.11
Thickness
5818 5803 5793 5800 5805 5804 5798 5790 5786 5794 5808 5799 5792 5791 5796 5801 5799 5796 5794 5793 5792 5793 5798 5798 5797 5796 5793 5791 5788 5787 5784 5783 5781 5778 5775 5773 5772 5772 5773 5773 5772 5771 5770 5769
5799 5795 5810 5815 5812 5806 5799 5790 5788 5797 5808 5801 5791 5792 5800 5803 5802 5803 5800 5797 5797 5796 5796 5797 5798 5797 5794 5792 5790 5788 5786 5784 5783 5781 5779 5777 5775 5774 5773 5773 5772 5772 5771 5770
5795 5805 5818 5811 5804 5798 5795 5790 5791 5790 5798 5800 5792 5785 5793 5802 5806 5806 5806 5805 5803 5801 5799 5800 5799 5798 5796 5794 5792 5791 5788 5787 5785 5783 5781 5778 5775 5773 5772 5772 5771 5772 5771 5770
5800 5812 5813 5806 5802 5801 5788 5805 5802 5795 5782 5771 5782 5760 5785 5794 5798 5803 5806 5807 5808 5808 5807 5804 5803 5800 5799 5798 5797 5794 5791 5789 5787 5785 5782 5778 5773 5770 5771 5772 5772 5772 5772 5771
5797 5808 5807 5802 5807 5808 5802 5811 5802 5793 5778 5767 5772 5762 5774 5790 5790 5801 5809 5813 5814 5814 5812 5810 5808 5807 5805 5803 5800 5796 5793 5791 5789 5786 5784 5780 5776 5774 5774 5773 5772 5771 5772 5771
5802 5814 5815 5812 5817 5816 5810 5798 5786 5773 5764 5750 5764 5758 5766 5783 5797 5808 5815 5819 5819 5819 5818 5816 5814 5811 5807 5806 5802 5799 5794 5792 5790 5788 5785 5781 5778 5775 5773 5773 5772 5771 5771 5771
5787 5801 5814 5818 5805 5805 5799 5773 5748 5745 5735 5742 5764 5760 5771 5804 5814 5819 5821 5823 5825 5824 5821 5818 5814 5811 5809 5806 5803 5800 5796 5793 5792 5789 5786 5784 5781 5779 5776 5775 5773 5771 5770 5770
5764 5769 5799 5809 5804 5792 5788 5778 5748 5735 5731 5742 5759 5757 5788 5816 5823 5826 5828 5829 5828 5826 5824 5822 5820 5817 5813 5810 5806 5801 5798 5796 5794 5791 5788 5786 5784 5781 5779 5777 5775 5773 5772 5772
5757 5765 5800 5810 5814 5802 5782 5774 5777 5752 5744 5741 5750 5767 5793 5816 5818 5821 5824 5826 5826 5828 5827 5825 5823 5820 5817 5813 5810 5807 5802 5798 5796 5793 5790 5787 5785 5783 5781 5779 5777 5775 5774 5774
5767 5763 5786 5801 5805 5799 5794 5778 5759 5745 5731 5730 5747 5759 5773 5800 5807 5814 5818 5821 5824 5827 5827 5826 5824 5822 5820 5818 5814 5811 5807 5802 5799 5796 5793 5790 5786 5784 5782 5779 5777 5776 5775 5774
5768 5758 5769 5783 5782 5779 5777 5770 5758 5745 5745 5731 5731 5754 5797 5803 5809 5811 5816 5821 5823 5825 5826 5825 5824 5823 5821 5818 5814 5810 5808 5804 5800 5797 5794 5791 5788 5785 5782 5779 5777 5775 5774 5773
5758 5747 5744 5764 5785 5793 5786 5774 5761 5750 5740 5737 5736 5757 5808 5809 5812 5814 5817 5820 5822 5824 5824 5823 5822 5820 5818 5815 5813 5810 5808 5805 5802 5799 5795 5791 5788 5785 5782 5779 5778 5775 5773 5772
5752 5738 5730 5742 5758 5773 5774 5771 5766 5757 5741 5731 5735 5762 5803 5806 5808 5811 5814 5817 5818 5819 5819 5818 5817 5816 5815 5813 5810 5809 5807 5804 5801 5798 5793 5789 5786 5783 5781 5779 5777 5775 5773 5770
5753 5731 5728 5729 5741 5756 5760 5763 5762 5755 5741 5736 5746 5767 5788 5796 5799 5805 5809 5812 5814 5814 5814 5813 5812 5812 5812 5810 5808 5807 5805 5803 5800 5796 5792 5788 5786 5783 5781 5779 5776 5774 5772 5769
5740 5726 5733 5740 5752 5756 5759 5762 5761 5759 5757 5751 5760 5766 5783 5792 5798 5803 5806 5807 5807 5807 5808 5808 5807 5807 5807 5806 5805 5803 5801 5800 5798 5794 5790 5788 5786 5783 5780 5776 5774 5772 5770 5766
5721 5719 5725 5732 5744 5749 5751 5758 5761 5762 5761 5761 5765 5768 5785 5792 5796 5797 5799 5800 5800 5802 5804 5804 5804 5803 5802 5803 5802 5800 5799 5798 5795 5792 5788 5786 5783 5779 5776 5774 5771 5768 5766 5763
5705 5708 5707 5710 5728 5736 5730 5749 5755 5756 5760 5762 5758 5769 5780 5782 5786 5789 5792 5794 5796 5798 5800 5800 5801 5801 5801 5800 5799 5797 5796 5794 5791 5788 5786 5783 5778 5775 5773 5770 5767 5764 5762 5759
5697 5694 5690 5694 5710 5703 5732 5755 5758 5755 5757 5762 5766 5770 5775 5778 5783 5788 5790 5790 5791 5794 5795 5797 5797 5798 5798 5798 5797 5794 5792 5789 5786 5782 5780 5778 5774 5771 5769 5766 5763 5761 5758 5754
5695 5690 5680 5679 5686 5702 5727 5743 5746 5744 5745 5757 5759 5764 5769 5774 5777 5777 5784 5786 5787 5788 5790 5791 5792 5793 5793 5792 5792 5789 5786 5784 5781 5778 5776 5774 5771 5767 5764 5761 5759 5756 5753 5750
5684 5684 5677 5673 5681 5686 5715 5738 5748 5743 5732 5751 5754 5756 5759 5762 5754 5762 5775 5779 5780 5782 5783 5784 5786 5785 5784 5784 5784 5781 5778 5776 5773 5772 5771 5770 5767 5763 5760 5758 5754 5750 5747 5744
5668 5666 5666 5668 5673 5689 5715 5729 5737 5719 5724 5743 5747 5750 5751 5751 5754 5762 5767 5769 5772 5774 5775 5777 5777 5775 5773 5774 5773 5770 5768 5766 5767 5766 5765 5763 5761 5759 5757 5753 5750 5745 5741 5737
5657 5657 5657 5659 5664 5679 5710 5716 5714 5715 5728 5735 5739 5742 5744 5747 5751 5755 5757 5759 5762 5763 5765 5766 5766 5764 5763 5764 5763 5759 5759 5760 5759 5758 5756 5755 5753 5752 5750 5745 5742 5739 5735 5729
5650 5655 5656 5662 5671 5687 5696 5701 5708 5714 5718 5725 5729 5734 5737 5739 5741 5744 5746 5749 5752 5754 5755 5755 5754 5753 5753 5754 5752 5750 5750 5751 5751 5749 5747 5745 5743 5742 5740 5737 5733 5730 5726 5722
5648 5651 5652 5657 5671 5680 5687 5694 5701 5708 5711 5717 5722 5726 5729 5729 5731 5733 5735 5737 5739 5742 5744 5744 5743 5742 5742 5744 5743 5743 5742 5742 5741 5738 5736 5735 5733 5731 5729 5726 5723 5720 5717 5713
5640 5644 5644 5649 5662 5670 5680 5685 5690 5697 5702 5707 5712 5716 5717 5718 5719 5721 5723 5725 5727 5730 5731 5731 5731 5732 5733 5734 5733 5734 5733 5732 5729 5727 5726 5724 5722 5720 5717 5714 5711 5709 5707 5705
5632 5635 5638 5646 5656 5658 5666 5675 5681 5685 5690 5695 5699 5702 5705 5707 5709 5711 5712 5714 5716 5717 5718 5719 5719 5720 5721 5722 5722 5722 5721 5720 5718 5717 5715 5713 5711 5708 5705 5701 5698 5696 5694 5693